Location: Flensburg
(54.6357°N, 9.5142°E)
Time: 04:31:09
(UTC+01:00)

ISS - Pass Details

Date: 06 January 2018
Orbit: 401 x 406 km, 51.6° (Epoch: 17 January)

Event Time Altitude Azimuth Distance (km) Brightness Sun altitude
Exits shadow 06:48:22 27° 246° (WSW) 811 -2.7 -15.3°
Maximum altitude 06:49:47 48° 185° (S) 538 -3.2 -15.1°
Drops below altitude 10° 06:52:58 10° 110° (ESE) 1,468 0.4 -14.7°
Sets 06:55:06 0° 105° (ESE) 2,329 2.0 -14.4°
